Location: Sternwarte ZA, Rosenfeld-Brittheim
(48.2889°N, 8.6789°E)
Time: 06:35:31
(UTC+01:00)

ISS - Pass Details

Date: 27 November 2020
Orbit: 418 x 421 km, 51.6° (Epoch: 26 November)

Event Time Altitude Azimuth Distance (km) Brightness Sun altitude
Rises 18:58:21 0° 276° (W) 2,364 1.4 -23.1°
Reaches altitude 10° 19:00:31 10° 283° (WNW) 1,500 0.0 -23.5°
Enters shadow 19:02:42 32° 309° (NW) 739 -2.2 -23.8°
